Location: Newark
(10.9667°N, 4.8167°W)
Time: 21:31:37
(UTC+00:00)

Hubble Space Telescope - Pass Details

Date: 15 December 2019
Orbit: 536 x 540 km, 28.5° (Epoch: 26 January)

Event Time Altitude Azimuth Distance (km) Brightness Sun altitude
Exits shadow 05:04:13 15° 7° (N) 1,514 2.9 -20.2°
Drops below altitude 10° 05:05:28 10° 23° (NNE) 1,782 3.4 -20.0°
Sets 05:08:21 0° 43° (NE) 2,673 4.6 -19.3°
